"Pseudo-MPEC" for CER2332

Created 2026 Sep 5 10:35:07 UT using Find_Orb

Click here for an explanation of pseudo-MPECs

 
 Astrometry: 
     CER2332*1C2026 09 05.14881720 53 18.928-06 05 15.04   ~954K 20.39GVNEOCPG96
     CER2332 1C2026 09 05.15443020 53 16.012-06 02 45.67   ~954K 19.82GVNEOCPG96
     CER2332 1C2026 09 05.16005720 53 13.132-06 00 16.60   ~954K 20.14GVNEOCPG96
     CER2332 1C2026 09 05.20242820 52 51.391-05 41 39.77   ~9555 19.84GVNEOCPV06
     CER2332 1C2026 09 05.20286420 52 51.164-05 41 28.25   ~9555 19.66GVNEOCPV06
     CER2332 1C2026 09 05.20330220 52 50.941-05 41 16.69   ~9555 19.66GVNEOCPV06
     CER2332 1C2026 09 05.22245320 52 41.092-05 32 51.76   ~955Z 19.97GVNEOCPV06
     CER2332 1C2026 09 05.22289220 52 40.868-05 32 40.34   ~955Z 19.91GVNEOCPV06
     CER2332 1C2026 09 05.22332920 52 40.638-05 32 28.72   ~955Z 19.99GVNEOCPV06
     CER2332 1C2026 09 05.22376520 52 40.415-05 32 17.23   ~955Z 19.80GVNEOCPV06
     CER2332 !C2026 09 05.23664420 52 34.903-05 26 42.65   ~956K 18.9 GWNEOCP673
     CER2332 !C2026 09 05.25532420 52 25.380-05 18 30.60   ~956K 18.9 GWNEOCP673
     CER2332  C2026 09 05.33365820 51 44.392-04 44 08.86   ~958o 20.2 GWNEOCPH01
     CER2332  C2026 09 05.33841520 51 42.052-04 42 03.86   ~958o 19.6 GWNEOCPH01
     CER2332  C2026 09 05.34732020 51 37.687-04 38 09.99   ~958o 19.8 GWNEOCPH01
     CER2332  C2026 09 05.35528120 51 33.804-04 34 41.30   ~958o 20.7 GWNEOCPH01

Station data:
(673) Table Mountain Observatory, Wrightwood  (N34.381485 W117.682170)
   US/California.  Observers J. Chesley, J. Pittichova. Measurer W. M. Owen
   Jr. 0.61-m f/16 reflector + CCD.
(G96) Mt. Lemmon Survey  (N32.442729 W110.788720)
   US/Arizona.  Observer E. J. Christensen. Measurers T. Beuden, V. F.
   Carvajal, D. Fay, J. B. Fazekas, D. C. Fuls, A. R. Gibbs, A. D. Grauer, H.
   Gröller, J. K. Hogan, R. A. Kowalski, S. M. Larson, G. J. Leonard, D.
   Rankin, R. L. Seaman, F. C. Shelly, K. W. Wierzchoś. 1.5-m reflector + 10K
   CCD.
(H01) Magdalena Ridge Observatory, Socorro  (N33.984833 W107.189333)  US/New
   Mexico.  Observers W. H. Ryan, E. V. Ryan. Measurer W. H. Ryan. 2.4-m
   f/8.9 reflector + CCD.
(V06) Catalina Sky Survey-Kuiper  (N32.416871 W110.732550)  US/Arizona.
   Measurers T. Beuden, V. F. Carvajal, D. Fay, J. B. Fazekas, D. C. Fuls, A.
   R. Gibbs, A. D. Grauer, H. Gröller, J. K. Hogan, R. A. Kowalski, S. M.
   Larson, G. J. Leonard, D. Rankin, R. L. Seaman, F. C. Shelly, K. W.
   Wierzchoś. 1.55-m reflector + CCD.

Orbital elements:  CER2332
   Perihelion 2026 Sep 15.540293 +/- 0.722 TT = 12:58:01.3 (JD 2461299.040293)
Epoch 2026 Sep  5.0 TT = JDT 2461288.5   Earth MOID: 0.0467   Ma: 0.0898
M 353.849291803 +/- 0.40            (J2000 ecliptic)             AutoNEOCP
n   0.583542430 +/- 0.0137          Peri.   12.094246 +/- 0.7
a   1.418255323 +/- 0.0222          Node   339.550901 +/- 0.028
e   0.25892114 +/- 0.0111           Incl.   22.360477 +/- 0.42
P   1.689/616.910d         H 25.09  G  0.15   U  9.9
q 1.051039032 +/- 0.00103    Q 1.785471615 +/- 0.0437
From 16 observations 2026 Sept. 5 (5.0 hr); mean residual 0".28
Residuals in arcseconds: 
260905 G96  .40+  .98-    260905 V06  .08+  .12+    260905 H01  .05+  .02-    
260905 G96  .31-  .26+    260905 V06  .11+  .03-    260905 H01  .03+  .05+    
260905 G96  .32-  .84+    260905 V06  .03+  .07+    260905 H01  .05-  .12+    
260905 V06  .08+  .02-    260905 V06  .05+  .07+    260905 H01  .16-  .12-    
260905 V06  .04+  .00     260905 673  .26-  .24-    
260905 V06  .08+  .02+    260905 673  .30+  .02-    

Ephemerides (geocentric):
Date (UTC) HH   RA             Dec           delta  r     elong  mag " sig PA
---- --------  ------------   ------------  ------ ------ -----  --- --------
2026 09 05 11  20 50 54.797   -03 48 13.31  .05369 1.0546 148.8 20.1 4.69  68
2026 09 05 12  20 50 36.219   -03 30 09.49  .05375 1.0545 148.7 20.1 5.38  73
2026 09 05 13  20 50 17.702   -03 12 08.08  .05381 1.0545 148.5 20.2 6.10  77
2026 09 05 14  20 49 59.246   -02 54 09.13  .05387 1.0545 148.4 20.2 6.85  81
2026 09 05 15  20 49 40.850   -02 36 12.70  .05394 1.0544 148.2 20.2 7.63  84
2026 09 05 16  20 49 22.516   -02 18 18.85  .05400 1.0544 148.0 20.2 8.44  87
2026 09 05 17  20 49 04.241   -02 00 27.63  .05407 1.0544 147.9 20.2 9.26  90
2026 09 05 18  20 48 46.027   -01 42 39.10  .05414 1.0544 147.7 20.2 10.1  92
2026 09 05 19  20 48 27.873   -01 24 53.32  .05421 1.0543 147.6 20.2 11.0  94
2026 09 05 20  20 48 09.779   -01 07 10.34  .05428 1.0543 147.4 20.2 11.9  96
2026 09 05 21  20 47 51.744   -00 49 30.21  .05435 1.0543 147.2 20.2 12.8  98
2026 09 05 22  20 47 33.770   -00 31 52.98  .05443 1.0542 147.1 20.2 13.7 100
2026 09 05 23  20 47 15.855   -00 14 18.72  .05450 1.0542 146.9 20.2 14.7 101
2026 09 06 00  20 46 57.999   +00 03 12.55  .05458 1.0542 146.7 20.2 15.7 103
2026 09 06 01  20 46 40.203   +00 20 40.75  .05466 1.0542 146.6 20.2 16.7 104
2026 09 06 02  20 46 22.465   +00 38 05.86  .05474 1.0541 146.4 20.2 17.7 106
2026 09 06 03  20 46 04.787   +00 55 27.81  .05482 1.0541 146.2 20.3 18.8 107
2026 09 06 04  20 45 47.168   +01 12 46.57  .05491 1.0541 146.1 20.3 19.8 108
2026 09 06 05  20 45 29.607   +01 30 02.08  .05499 1.0540 145.9 20.3 20.9 109
2026 09 06 06  20 45 12.105   +01 47 14.31  .05508 1.0540 145.7 20.3 22.0 110
2026 09 06 07  20 44 54.661   +02 04 23.21  .05517 1.0540 145.5 20.3 23.2 111
2026 09 06 08  20 44 37.275   +02 21 28.74  .05526 1.0540 145.4 20.3 24.3 112
2026 09 06 09  20 44 19.948   +02 38 30.86  .05535 1.0539 145.2 20.3 25.5 113
2026 09 06 10  20 44 02.678   +02 55 29.53  .05544 1.0539 145.0 20.3 26.7 114
2026 09 06 11  20 43 45.466   +03 12 24.70  .05553 1.0539 144.8 20.3 27.9 115
2026 09 06 12  20 43 28.312   +03 29 16.35  .05563 1.0539 144.6 20.3 29.2 116
2026 09 06 13  20 43 11.216   +03 46 04.43  .05573 1.0538 144.5 20.3 30.4 117
2026 09 06 14  20 42 54.177   +04 02 48.91  .05583 1.0538 144.3 20.3 31.7 118
2026 09 06 15  20 42 37.195   +04 19 29.75  .05593 1.0538 144.1 20.4 33.0 119
2026 09 06 16  20 42 20.270   +04 36 06.92  .05603 1.0538 143.9 20.4 34.4 119
2026 09 06 17  20 42 03.402   +04 52 40.39  .05613 1.0537 143.7 20.4 35.7 120
2026 09 06 18  20 41 46.591   +05 09 10.12  .05624 1.0537 143.6 20.4 37.1 121
2026 09 06 19  20 41 29.836   +05 25 36.09  .05634 1.0537 143.4 20.4 38.4 121
2026 09 06 20  20 41 13.138   +05 41 58.27  .05645 1.0537 143.2 20.4 39.8 122
2026 09 06 21  20 40 56.497   +05 58 16.62  .05656 1.0536 143.0 20.4 41.3 123
2026 09 06 22  20 40 39.911   +06 14 31.11  .05667 1.0536 142.8 20.4 42.7 123
2026 09 06 23  20 40 23.382   +06 30 41.73  .05678 1.0536 142.7 20.4 44.2 124
2026 09 07 00  20 40 06.909   +06 46 48.45  .05689 1.0536 142.5 20.4 45.6 124
2026 09 07 01  20 39 50.491   +07 02 51.23  .05700 1.0535 142.3 20.4 47.1 125
2026 09 07 02  20 39 34.129   +07 18 50.07  .05712 1.0535 142.1 20.5 48.6 126
2026 09 07 03  20 39 17.822   +07 34 44.92  .05724 1.0535 141.9 20.5 50.2 126
2026 09 07 04  20 39 01.571   +07 50 35.78  .05735 1.0535 141.7 20.5 51.7 127
2026 09 07 05  20 38 45.375   +08 06 22.62  .05747 1.0534 141.5 20.5 53.3 127
2026 09 07 06  20 38 29.233   +08 22 05.42  .05759 1.0534 141.4 20.5 54.8 128
2026 09 07 07  20 38 13.147   +08 37 44.16  .05772 1.0534 141.2 20.5 56.4 128
2026 09 07 08  20 37 57.116   +08 53 18.83  .05784 1.0534 141.0 20.5 58.0 128
2026 09 07 09  20 37 41.139   +09 08 49.40  .05796 1.0533 140.8 20.5 59.6 129
2026 09 07 10  20 37 25.216   +09 24 15.87  .05809 1.0533 140.6 20.5 61.3 129